Vorticity
9 3 4 4 5 5 7 5 6 8 9 4 9 10 24 6 -1 -1 5 -0 6 10 9 6 3 1 2 4 3 4 6 4 3 6 11 6 11 9 5 5 5 5 3
5 7 6 6 7 6 8 7 7 4 2 10 6 8 7 25 6 11 7 3 4 4 0 8 5 3 2 3 2 4 5 5 4 3 11 9 9 12 6 5 6 6 2
6 8 7 8 7 5 7 7 5 9 3 3 8 6 3 13 32 1 9 3 10 1 1 5 7 4 3 2 3 2 5 5 3 4 10 12 8 13 7 6 5 5 4
8 8 6 7 10 9 7 6 8 5 6 4 4 4 -0 -5 10 14 9 7 -6 15 4 5 6 4 4 4 3 3 3 5 2 3 12 14 6 12 11 6 5 5 4
13 21 10 5 6 8 5 7 5 7 3 8 5 5 3 6 5 11 -6 33 -5 4 10 12 2 5 5 5 2 3 3 4 4 1 5 16 7 7 14 8 5 5 5
23 13 23 6 1 5 4 5 3 6 7 3 5 4 4 3 5 6 -5 -0 48 15 41 16 13 3 5 -1 3 1 3 3 3 1 -3 6 11 6 10 14 7 5 5
7 1 16 11 4 1 2 3 6 6 5 6 2 6 8 6 8 7 5 5 24 18 -23 56 -8 -0 0 5 1 4 -4 3 4 2 1 1 3 13 4 19 10 6 6
5 -16 7 13 9 3 4 4 2 3 8 5 11 3 3 6 3 5 8 5 8 -0 -0 14 11 67 0 10 -0 5 4 -3 2 4 8 2 4 9 12 4 17 9 5
-3 -7 11 5 6 7 3 8 4 7 7 9 5 2 -0 1 9 9 4 9 12 10 0 20 3 61 14 3 14 -0 10 -4 -0 2 5 5 -1 3 7 11 5 16 8
10 10 14 -0 5 7 7 10 11 12 7 12 9 9 6 4 10 13 15 12 9 13 5 2 8 20 25 56 30 -3 2 6 0 2 0 -5 2 -4 1 13 11 4 16
4 12 13 25 18 22 11 12 12 9 8 5 7 11 5 6 -0 3 4 5 4 6 9 8 4 2 10 2 44 41 -9 2 -0 8 -0 -2 -4 6 -1 2 8 8 3
19 10 -7 8 8 10 20 12 1 2 12 7 7 5 8 4 3 4 7 7 4 4 5 3 10 5 6 13 14 49 48 8 2 -1 9 0 4 3 3 -2 -3 1 4
27 0 -3 11 4 13 15 15 11 8 1 9 7 9 6 8 7 2 7 10 7 7 8 3 5 9 12 4 -6 11 12 88 -2 -2 3 0 1 1 3 -10 3 5 -0
11 -3 -1 -3 8 0 1 22 17 9 8 6 6 6 7 3 6 6 4 7 8 8 7 7 5 3 8 3 1 3 3 19 34 49 1 7 0 -3 1 1 -1 -0 2
6 -10 -8 7 12 16 4 -2 15 21 9 6 8 7 6 6 4 3 2 6 5 5 7 7 5 6 4 9 3 8 11 -10 31 20 37 22 -6 4 0 4 6 -5 6
31 24 5 7 11 38 12 -15 -2 14 20 7 9 9 7 5 3 4 4 4 6 7 4 4 9 3 3 7 13 -1 6 7 7 6 10 8 41 14 6 -2 9 3 -2
24 26 17 16 13 26 32 25 44 -6 15 13 12 6 9 8 7 6 5 3 5 7 4 6 4 6 10 2 5 7 6 7 4 6 10 1 4 30 25 9 2 3 -6
20 12 33 26 16 21 33 31 8 26 3 11 9 12 10 8 9 8 7 6 2 6 8 7 5 4 3 7 11 8 0 2 3 6 3 11 8 2 26 31 20 -2 -8
60 24 38 21 18 23 8 27 27 5 19 6 4 10 8 9 9 8 6 7 8 6 5 4 5 6 3 3 2 10 11 8 5 10 2 6 12 7 4 7 3 17 33
-14 25 12 36 25 33 27 17 28 18 18 14 8 2 6 9 9 9 9 9 6 3 2 3 5 6 6 5 1 4 7 7 4 5 2 8 8 13 10 1 9 6 -2
21 12 16 17 9 38 36 47 25 23 12 14 12 5 2 1 4 7 7 7 5 5 5 3 4 4 5 6 3 -1 3 5 5 5 6 5 9 6 13 13 11 4 7
7 20 30 7 30 23 33 -11 10 51 31 20 18 16 10 9 5 2 1 2 -0 1 7 4 5 7 6 5 6 5 4 1 5 9 4 6 7 10 13 10 16 10 7
-2 4 8 3 21 48 0 4 7 27 10 32 37 30 22 29 27 22 10 8 9 10 5 6 6 5 4 5 6 6 6 1 11 6 6 6 5 10 12 12 26 -3 16
13 8 13 7 9 10 36 59 16 -3 16 -2 19 28 40 34 10 4 14 17 20 11 8 8 5 4 2 4 -1 2 5 2 5 7 10 10 11 4 25 -1 15 -5 12
3 5 -5 7 12 0 1 15 33 29 4 5 4 4 27 30 31 39 45 35 24 12 10 4 4 11 5 9 10 9 14 12 11 11 9 11 11 5 9 19 2 10 -8
4 -2 5 8 -5 11 4 0 -0 1 9 65 52 17 2 10 10 14 12 15 19 20 23 25 31 34 43 44 22 23 14 12 10 13 12 9 9 13 11 10 9 10 9
Height
5784 5793 5799 5802 5807 5809 5814 5819 5821 5824 5828 5833 5833 5835 5839 5845 5849 5848 5853 5857 5859 5863 5866 5868 5869 5871 5871 5872 5872 5872 5872 5872 5870 5869 5867 5866 5865 5865 5865 5865 5864 5863 5862
5776 5780 5789 5795 5799 5802 5808 5811 5816 5817 5821 5827 5829 5829 5831 5835 5843 5843 5846 5851 5853 5856 5859 5862 5864 5866 5867 5868 5869 5869 5869 5869 5868 5866 5865 5863 5863 5863 5862 5862 5862 5862 5859
5762 5770 5776 5784 5789 5795 5798 5803 5808 5812 5813 5820 5821 5823 5825 5830 5835 5836 5836 5842 5847 5850 5854 5856 5858 5860 5862 5863 5865 5865 5865 5865 5864 5864 5862 5860 5859 5859 5858 5858 5859 5858 5858
5750 5754 5762 5771 5780 5785 5788 5792 5800 5805 5808 5811 5815 5818 5820 5824 5827 5829 5831 5832 5838 5843 5846 5849 5852 5856 5857 5858 5859 5861 5861 5861 5861 5860 5859 5857 5856 5855 5855 5855 5855 5855 5854
5739 5742 5749 5755 5767 5773 5778 5786 5791 5797 5803 5805 5809 5811 5813 5817 5822 5825 5826 5826 5828 5835 5839 5842 5844 5848 5852 5853 5854 5855 5856 5857 5858 5857 5856 5854 5853 5852 5850 5851 5851 5851 5850
5725 5727 5731 5739 5751 5765 5771 5778 5783 5788 5793 5797 5802 5804 5807 5810 5815 5819 5822 5822 5821 5825 5826 5833 5836 5837 5843 5846 5846 5848 5850 5851 5852 5853 5853 5852 5850 5849 5848 5846 5847 5846 5846
5711 5713 5719 5730 5746 5753 5759 5766 5771 5778 5783 5787 5790 5795 5799 5803 5806 5810 5815 5817 5818 5817 5817 5821 5825 5828 5831 5835 5837 5839 5842 5844 5846 5847 5847 5847 5846 5845 5844 5843 5842 5841 5842
5689 5701 5710 5717 5731 5741 5746 5752 5757 5764 5772 5777 5781 5786 5791 5794 5797 5801 5807 5810 5812 5812 5810 5816 5818 5819 5821 5825 5829 5831 5833 5836 5840 5841 5842 5841 5840 5840 5839 5837 5838 5837 5836
5679 5692 5702 5707 5718 5730 5739 5744 5751 5757 5761 5767 5772 5777 5782 5786 5791 5794 5797 5803 5804 5806 5804 5809 5812 5811 5815 5818 5821 5822 5825 5827 5830 5833 5835 5835 5834 5834 5834 5833 5832 5832 5831
5674 5684 5695 5703 5712 5721 5730 5739 5744 5751 5757 5761 5764 5768 5774 5778 5783 5786 5790 5793 5797 5800 5800 5799 5803 5807 5808 5809 5812 5815 5816 5818 5822 5823 5825 5828 5827 5827 5828 5827 5826 5826 5825
5673 5680 5689 5696 5702 5712 5719 5728 5736 5741 5748 5754 5758 5762 5766 5770 5775 5780 5783 5785 5788 5791 5794 5793 5795 5798 5801 5802 5802 5804 5806 5807 5812 5814 5815 5818 5818 5820 5821 5821 5820 5819 5818
5664 5671 5680 5687 5692 5696 5703 5710 5717 5727 5734 5739 5747 5753 5759 5763 5767 5772 5775 5777 5780 5783 5786 5789 5788 5790 5793 5792 5793 5792 5792 5796 5800 5805 5804 5808 5809 5812 5812 5813 5813 5811 5809
5657 5663 5670 5675 5680 5685 5692 5699 5704 5712 5720 5727 5733 5741 5748 5754 5760 5763 5767 5770 5772 5775 5777 5780 5782 5782 5783 5783 5784 5786 5785 5787 5790 5793 5794 5798 5798 5801 5803 5803 5804 5803 5802
5653 5657 5661 5665 5671 5676 5682 5687 5693 5700 5706 5715 5722 5729 5736 5742 5749 5754 5758 5762 5764 5767 5769 5770 5772 5774 5773 5774 5775 5778 5778 5778 5778 5780 5784 5787 5787 5790 5793 5793 5794 5794 5793
5644 5649 5651 5655 5659 5664 5669 5678 5683 5688 5694 5703 5711 5719 5724 5731 5737 5742 5747 5753 5756 5758 5760 5762 5763 5764 5765 5766 5768 5767 5769 5769 5769 5769 5772 5776 5776 5778 5780 5780 5783 5783 5783
5638 5638 5641 5644 5646 5650 5656 5663 5672 5677 5683 5691 5699 5706 5712 5718 5725 5731 5736 5741 5746 5749 5751 5753 5754 5756 5757 5757 5758 5757 5757 5758 5759 5761 5762 5763 5764 5764 5768 5769 5770 5771 5771
5626 5626 5626 5628 5632 5636 5641 5648 5656 5664 5671 5678 5686 5693 5699 5708 5715 5720 5724 5729 5734 5738 5741 5743 5744 5746 5748 5749 5748 5748 5748 5749 5750 5751 5752 5753 5753 5752 5752 5756 5757 5757 5758
5612 5610 5611 5613 5617 5622 5627 5633 5640 5649 5659 5666 5674 5681 5689 5696 5702 5708 5713 5717 5721 5725 5728 5731 5733 5734 5737 5738 5739 5739 5737 5736 5738 5740 5741 5741 5742 5742 5740 5742 5743 5745 5745
5604 5600 5600 5601 5604 5608 5612 5617 5624 5635 5644 5653 5662 5669 5676 5683 5689 5694 5700 5704 5708 5712 5716 5719 5720 5722 5724 5726 5727 5726 5725 5725 5726 5727 5728 5728 5728 5729 5730 5730 5729 5728 5729
5599 5596 5594 5593 5596 5600 5603 5608 5613 5620 5631 5640 5649 5658 5665 5672 5677 5682 5686 5691 5695 5699 5701 5704 5707 5709 5711 5712 5714 5713 5712 5712 5712 5714 5716 5715 5714 5715 5715 5716 5717 5715 5717
5601 5597 5594 5594 5592 5595 5599 5603 5608 5612 5619 5627 5636 5645 5653 5659 5664 5669 5675 5680 5682 5684 5686 5689 5692 5695 5696 5698 5698 5698 5697 5697 5698 5698 5699 5700 5699 5699 5701 5702 5702 5702 5701
5607 5604 5600 5599 5597 5597 5598 5601 5603 5607 5612 5618 5624 5633 5640 5646 5651 5656 5661 5665 5668 5669 5671 5674 5676 5679 5682 5683 5684 5685 5683 5683 5681 5683 5683 5684 5683 5683 5684 5684 5687 5687 5686
5612 5610 5607 5605 5602 5600 5600 5602 5604 5605 5608 5611 5616 5622 5626 5631 5636 5641 5646 5650 5654 5655 5656 5659 5661 5664 5666 5666 5667 5667 5667 5667 5666 5666 5666 5666 5666 5667 5667 5669 5670 5671 5669
5616 5614 5613 5611 5609 5606 5603 5601 5603 5604 5605 5608 5612 5614 5616 5620 5624 5627 5631 5635 5638 5639 5641 5642 5644 5646 5648 5648 5649 5649 5650 5650 5649 5649 5647 5647 5647 5650 5651 5652 5654 5655 5652
5620 5617 5616 5614 5613 5611 5609 5607 5604 5603 5606 5606 5609 5610 5611 5612 5614 5617 5619 5621 5623 5625 5626 5626 5626 5627 5628 5629 5629 5629 5630 5631 5630 5629 5629 5629 5628 5629 5632 5633 5635 5638 5636
5620 5619 5617 5615 5614 5613 5611 5610 5609 5608 5607 5605 5605 5606 5607 5608 5608 5609 5610 5611 5612 5612 5612 5611 5611 5611 5611 5610 5611 5610 5611 5612 5611 5610 5610 5610 5610 5611 5613 5612 5616 5619 5619